Location: Im Fang
(46.6019°N, 7.2397°E)
Time: 16:41:43
(UTC+00:00)

Envisat - Pass Details

Date: 11 March 2021
Orbit: 764 x 766 km, 98.1° (Epoch: 17 April)

Event Time Altitude Azimuth Distance (km) Brightness Sun altitude
Rises 17:59:18 0° 225° (SW) 3,224 7.0 -5.6°
Reaches altitude 10° 18:04:20 10° 269° (W) 2,307 7.3 -6.5°
Maximum altitude 18:04:51 10° 275° (W) 2,298 7.3 -6.6°
Drops below altitude 10° 18:05:22 10° 281° (W) 2,309 7.2 -6.7°
Sets 18:10:27 0° 325° (NW) 3,244 6.8 -7.5°
